Regional Weather Roundup
Issued by NWS

Home | Current Version | Previous Version | Graphics & Text | Print | Product List | Glossary On
Versions: 1 2 3 4 5 6 7 8 9 10 11 12 13 14 15 16 17 18 19 20 21 22 23 24 25 26 27 28 29 30 31 32 33 34 35 36 37 38 39 40 41 42 43 44 45 46 47 48 49 50
670
ASUS43 KLOT 061508
RWRIL

ILLINOIS REGIONAL WEATHER ROUNDUP
NATIONAL WEATHER SERVICE CHICAGO/ROMEOVILLE IL
900 AM CST SAT FEB 06 2016

NOTE: "FAIR" INDICATES FEW OR NO CLOUDS BELOW 12,000 FEET WITH NO
SIGNIFICANT WEATHER AND/OR OBSTRUCTIONS TO VISIBILITY.

* THESE STATIONS ARE NOT UNDER NWS QUALITY CONTROL. THEY ALSO MAY NOT
  REPORT WEATHER SUCH AS PRECIPITATION OR FOG.

ILZ001-002-007-009-015-016-024-061600-
NORTHWEST ILLINOIS

CITY           SKY/WX    TMP DP  RH WIND       PRES   REMARKS
MOLINE         SUNNY     33  23  66 CALM      30.25S
STERLING*      MOSUNNY   32  25  74 SW3       30.23S
SAVANNA*       CLOUDY    31  25  80 SW3       30.25R
$$

ILZ003-004-008-010-011-017-018-061600-
NORTH CENTRAL ILLINOIS

CITY           SKY/WX    TMP DP  RH WIND       PRES   REMARKS
ROCKFORD       CLOUDY    28  23  81 SW7       30.26F WCI  21
FREEPORT*      CLOUDY    28  24  86 SW5       30.25F WCI  23
ROCHELLE*      CLOUDY    28  25  87 SW9       30.26S FOG     WCI  19
DE KALB*       PTSUNNY   29  24  82 SW7       30.25F WCI  22
PERU*          SUNNY     31  27  86 SW6       30.28S WCI  25
$$

ILZ005-006-012>014-019>023-061600-
NORTHEAST ILLINOIS

CITY           SKY/WX    TMP DP  RH WIND       PRES   REMARKS
CHICAGO-OHARE  MOSUNNY   29  23  78 SW9       30.26S WCI  20
CHICAGO-MIDWAY MOSUNNY   30  22  72 SW10      30.28S WCI  21
AURORA         SUNNY     30  25  81 SW8       30.27F HAZE    WCI  22
LANSING*       SUNNY     29  24  82 SW8       30.29F WCI  21
JOLIET*        SUNNY     31  26  80 S6        30.29S WCI  26
WAUKEGAN       MOSUNNY   29  23  78 SW8       30.23F WCI  21
DUPAGE AIRPORT SUNNY     28  22  78 SW12      30.26S WCI  18
KANKAKEE*      SUNNY     30  26  83 S10       30.31F WCI  21
WHEELING       SUNNY     29  22  75 SW8       30.27S WCI  21
MORRIS*        SUNNY     29  24  82 S7        30.25F WCI  22
ROMEOVILLE*    SUNNY     30  24  80 SW8       30.28S WCI  22
$$

LMZ740>746-061600-
SOUTHERN LAKE MICHIGAN

STATION/POSITION SKY/WX   TEMP    WIND        PRES    VSBY  WAVE
                          AIR SEA DIR/SP/G                  HT/PER
                          (F)     (DEG/KT/KT) (MB)    (MI)  (FT/S)
HARRISON CRIB              29     200/ 14/ 16   N/A
BURNHAM HARBOR             30     250/  9       N/A
CALUMET HARBOR             27     200/  7/  9 1025.0R
BURNS HARBOR               27     200/ 11/ 13 1026.1S
MICHIGAN CITY              26     160/ 12/ 15   N/A
$$

ILZ025>027-034>036-040-047-049-050-058-095>099-061600-
WEST-CENTRAL ILLINOIS

CITY           SKY/WX    TMP DP  RH WIND       PRES   REMARKS
QUINCY         SUNNY     33  22  63 S8        30.28S WCI  26
GALESBURG*     SUNNY     31  26  80 S7        30.26F WCI  24
MACOMB*        SUNNY     31  26  80 S3        30.30F
JACKSONVILLE*  SUNNY     35  27  71 S6        30.30S WCI  30
PITTSFIELD*    SUNNY     33  26  76 S3        30.30S
$$

ILZ028>032-037-038-041>044-048-051>054-059>061-061600-
CENTRAL ILLINOIS

CITY           SKY/WX    TMP DP  RH WIND       PRES   REMARKS
PONTIAC        SUNNY     32  28  86 SW10G17   30.30F WCI  23
BLOOMINGTON    SUNNY     30  28  92 S12       30.30F WCI  20
DECATUR        SUNNY     32  25  75 S8        30.33R WCI  25
PEORIA         SUNNY     30  26  85 S8        30.30S WCI  22
LACON*         SUNNY     31  25  78 S7        30.28S WCI  24
LINCOLN*       SUNNY     32  28  85 S8        30.32S WCI  25
SPRINGFIELD    SUNNY     34  27  75 S6        30.32S WCI  29
TAYLORVILLE    SUNNY     32  28  86 S5        30.33S WCI  27
$$

ILZ033-039-045-046-055>057-062-063-061600-
EAST-CENTRAL ILLINOIS

CITY           SKY/WX    TMP DP  RH WIND       PRES   REMARKS
CHAMPAIGN      SUNNY     30  26  85 S8        30.33S WCI  22
RANTOUL*       SUNNY     31  28  88 S8        30.32S FOG     WCI  23
MATTOON        SUNNY     32  25  75 S10       30.32S WCI  24
PARIS*         MOSUNNY   31  27  85 S5        30.35S WCI  26
$$

ILZ079-100>102-061600-
SOUTHWEST ILLINOIS

CITY           SKY/WX    TMP DP  RH WIND       PRES   REMARKS
ALTON          SUNNY     32  27  80 SE6       30.33S WCI  26
BELLEVILLE     SUNNY     32  26  79 CALM      30.33R
CAHOKIA*       SUNNY     32  23  69 CALM      30.34R
SPARTA*        SUNNY     33  26  74 CALM      30.34S
$$

ILZ064>066-069>071-074>076-080>082-084>086-088>090-092>094-061600-
SOUTH-CENTRAL ILLINOIS

CITY           SKY/WX    TMP DP  RH WIND       PRES   REMARKS
CARBONDALE     SUNNY     34  27  75 CALM      30.35R
CAIRO*         SUNNY     38  30  73 S5        30.37R WCI  34
EFFINGHAM*     SUNNY     33  28  82 E5        30.36R WCI  29
MARION         MOSUNNY   37  28  70 S5        30.35S WCI  34
MT. VERNON     SUNNY     34  25  69 CALM      30.35R
CENTRALIA*     SUNNY     34  28  77 CALM      30.33R HAZE
SALEM*         SUNNY     35  26  69 CALM      30.34R
METROPOLIS*    SUNNY     38  30  74 CALM      30.37S
$$

ILZ067-068-072-073-078-083-087-091-061600-
SOUTHEAST ILLINOIS

CITY           SKY/WX    TMP DP  RH WIND       PRES   REMARKS
LAWRENCEVILLE  MOSUNNY   32  27  81 CALM      30.36S
FLORA*         SUNNY     34  29  80 SE3       30.35S
FAIRFIELD*     SUNNY     33  27  76 CALM      30.34R
HARRISBURG*    SUNNY     34  28  78 CALM      30.36R
ROBINSON*      MOSUNNY   29  26  90 CALM      30.37S
CARMI*         SUNNY     33  29  87 CALM      30.35S
$$

ABBREVIATIONS USED IN REMARKS
   TC - TEMPERATURE IN CELSIUS
  WCI - WIND CHILL INDEX
   HX - HEAT INDEX
  VSB - VISIBILITY
$$





USA.gov is the U.S. government's official web portal to all federal, state and local government web resources and services.